Location: Unspecified
(40.8819°N, 0.0000°E)
Time: 16:15:11
(UTC+00:00)

VELOX 1 - Pass Details

Date: 26 April 2024
Orbit: 605 x 617 km, 98.3° (Epoch: 28 May)

Event Time Altitude Azimuth Distance (km) Brightness Sun altitude
Rises 21:09:37 0° 356° (N) 2,902 ? -22.8°
Reaches altitude 10° 21:12:21 10° 338° (NNW) 1,991 ? -23.2°
Maximum altitude 21:15:18 18° 295° (WNW) 1,516 ? -23.6°
Drops below altitude 10° 21:18:14 10° 252° (WSW) 1,980 ? -24.0°
Sets 21:20:58 0° 233° (SW) 2,880 ? -24.3°
